Istanbul, Turkey

3:50 AM +03 on December 05, 2016 (GMT +0300)
Ataturk

Weather History for LTBA - December, 2014

Change the Weather History Date:

Sunday, December 21, 2014

  Actual Average Record
Temperature  
Mean Temperature 48 °F -  
Max Temperature 53 °F 46 °F 62 °F (2010)
Min Temperature 44 °F 39 °F 28 °F (2002)
Degree Days  
Heating Degree Days 16    
Moisture  
Dew Point 44 °F    
Average Humidity 78    
Maximum Humidity 94    
Minimum Humidity 51    
Precipitation  
Precipitation 0.28 in - - ()
Sea Level Pressure  
Sea Level Pressure 30.10 in    
Wind  
Wind Speed 9 mph ()    
Max Wind Speed 22 mph    
Max Gust Speed -    
Visibility 5.1 miles    
Events Rain    
Averages and records for this station are not official NWS values.
T = Trace of Precipitation, MM = Missing Value Source: Averaged Metar Reports

Daily Weather History Graph

Daily Weather History Graph

Search for Another Location

Airport or City:

Trip Planner

Search our weather history database for the weather conditions in past years. The results will help you decide how hot, cold, wet, or windy it might be!

Date:

Astronomy

Dec. 21, 2014 Rise Set
Actual Time 7:25 AM EET 4:39 PM EET
Civil Twilight 6:54 AM EET 5:10 PM EET
Nautical Twilight 6:20 AM EET 5:45 PM EET
Astronomical Twilight 5:46 AM EET 6:18 PM EET
Moon 6:22 AM EET (12/21) 4:27 PM EET (12/21)
Length of Visible Light 10h 15m
Length of Day
9h 13m
Waning Crescent, 1% of the Moon is Illuminated
Dec 21
Waning Crescent
Dec 22
New
Dec 28
First Quarter
Jan 5
Full
Jan 13
Last Quarter

Hourly Weather History & Observations

Time (EET) Temp. Windchill Dew Point Humidity Pressure Visibility Wind Dir Wind Speed Gust Speed Precip Events Conditions
12:20 AM 51.8 °F - 48.2 °F 88% 30.12 in 3.7 mi WSW 6.9 mph - N/A   Unknown
12:50 AM 51.8 °F - 48.2 °F 88% 30.12 in 3.7 mi WSW 6.9 mph - N/A   Partly Cloudy
1:20 AM 51.8 °F - 48.2 °F 88% 30.12 in 4.3 mi WSW 5.8 mph - N/A   Partly Cloudy
1:50 AM 51.8 °F - 48.2 °F 88% 30.12 in 3.7 mi SW 3.5 mph - N/A   Scattered Clouds
2:00 AM 52 °F - 49 °F 85% 30.13 in 4 mi SW 3.5 mph - -   Mist
2:20 AM 51.8 °F - 48.2 °F 88% 30.12 in 3.7 mi SW 5.8 mph - N/A   Scattered Clouds
2:50 AM 51.8 °F - 48.2 °F 88% 30.09 in 3.7 mi SW 6.9 mph - N/A   Scattered Clouds
3:20 AM 51.8 °F - 48.2 °F 88% 30.09 in 3.7 mi SW 6.9 mph - N/A   Scattered Clouds
3:50 AM 50.0 °F - 48.2 °F 94% 30.09 in 3.7 mi SSW 5.8 mph - N/A   Scattered Clouds
4:20 AM 50.0 °F - 48.2 °F 94% 30.06 in 3.7 mi SSW 5.8 mph - N/A   Scattered Clouds
4:50 AM 50.0 °F - 46.4 °F 87% 30.06 in - SW 9.2 mph - N/A   Scattered Clouds
5:00 AM 51 °F - 47 °F 82% 30.08 in 3 mi SW 9.2 mph - -   Mist
5:20 AM 51.8 °F - 46.4 °F 82% 30.06 in 3.7 mi WSW 9.2 mph - N/A   Scattered Clouds
5:50 AM 51.8 °F - 46.4 °F 82% 30.06 in 4.3 mi SW 10.4 mph - N/A   Scattered Clouds
6:20 AM 51.8 °F - 46.4 °F 82% 30.06 in 4.3 mi SSW 11.5 mph - N/A   Scattered Clouds
6:50 AM 51.8 °F - 44.6 °F 76% 30.06 in 4.3 mi SSW 11.5 mph - N/A   Scattered Clouds
7:20 AM 51.8 °F - 44.6 °F 76% 30.06 in 6.2 mi SSW 12.7 mph - N/A   Scattered Clouds
7:50 AM 51.8 °F - 44.6 °F 76% 30.06 in 6.2 mi SSW 11.5 mph - N/A   Mostly Cloudy
8:00 AM 52 °F - 45 °F 69% 30.08 in 6 mi SSW 11.5 mph - -   Mostly Cloudy
8:20 AM 51.8 °F - 46.4 °F 82% 30.06 in 6.2 mi SSW 13.8 mph - N/A   Mostly Cloudy
8:50 AM 51.8 °F - 44.6 °F 76% 30.06 in 6.2 mi South 12.7 mph - N/A   Mostly Cloudy
9:20 AM 51.8 °F - 44.6 °F 76% 30.04 in 6.2 mi South 15.0 mph - N/A   Mostly Cloudy
9:50 AM 51.8 °F - 46.4 °F 82% 30.04 in 6.2 mi South 15.0 mph - N/A   Mostly Cloudy
10:20 AM 51.8 °F - 44.6 °F 76% 30.04 in 6.2 mi South 15.0 mph - N/A   Mostly Cloudy
10:50 AM 51.8 °F - 44.6 °F 76% 30.04 in 6.2 mi South 15.0 mph - N/A   Mostly Cloudy
11:00 AM 52 °F - 45 °F 69% 30.05 in 6 mi South 15.0 mph - -   Partly Cloudy
11:20 AM 51.8 °F - 44.6 °F 76% 30.04 in 6.2 mi SSW 16.1 mph - N/A   Mostly Cloudy
11:50 AM 51.8 °F - 44.6 °F 76% 30.01 in 6.2 mi SSW 12.7 mph - N/A   Mostly Cloudy
12:20 PM 51.8 °F - 44.6 °F 76% 30.01 in 6.2 mi SW 10.4 mph - N/A   Mostly Cloudy
12:50 PM 53.6 °F - 46.4 °F 77% 30.01 in 5.0 mi WSW 9.2 mph - N/A Rain Light Rain Showers
1:20 PM 53.6 °F - 48.2 °F 82% 30.01 in 4.3 mi SW 6.9 mph - N/A Rain Light Rain Showers
1:37 PM 51.8 °F - 48.2 °F 88% 30.01 in 3.1 mi WSW 8.1 mph - N/A Rain Rain Showers
1:50 PM 51.8 °F - 48.2 °F 88% 30.01 in 4.3 mi WSW 9.2 mph - N/A Rain Light Rain Showers
2:00 PM 52 °F - 48 °F 81% 30.01 in 4 mi WSW 9.2 mph - - Rain Light Rain Showers
2:20 PM 51.8 °F - 48.2 °F 88% 30.01 in 3.7 mi WSW 11.5 mph - N/A Rain Light Rain Showers
2:39 PM 51.8 °F - 48.2 °F 88% 30.01 in 3.1 mi WSW 11.5 mph - N/A Rain Rain Showers
2:50 PM 51.8 °F - 48.2 °F 88% 30.01 in 3.1 mi WSW 11.5 mph - N/A Rain Rain Showers
3:20 PM 51.8 °F - 48.2 °F 88% 30.04 in 3.1 mi West 10.4 mph - N/A Rain Rain Showers
3:50 PM 51.8 °F - 46.4 °F 82% 30.04 in 3.1 mi WNW 13.8 mph - N/A Rain Rain Showers
4:20 PM 46.4 °F 38.5 °F 39.2 °F 76% 30.06 in 4.3 mi North 21.9 mph - N/A Rain Light Rain Showers
4:50 PM 46.4 °F 40.1 °F 39.2 °F 76% 30.09 in 6.2 mi NNW 15.0 mph - N/A Rain Light Rain Showers
5:00 PM 46 °F - 40 °F 72% 30.10 in 6 mi NNW 15.0 mph - - Rain Light Rain Showers
5:20 PM 46.4 °F 42.9 °F 39.2 °F 76% 30.09 in 6.2 mi NNW 6.9 mph - N/A   Mostly Cloudy
5:50 PM 46.4 °F 41.5 °F 39.2 °F 76% 30.12 in 6.2 mi NNW 10.4 mph - N/A   Mostly Cloudy
6:20 PM 46.4 °F 40.7 °F 39.2 °F 76% 30.15 in 6.2 mi NNW 12.7 mph - N/A   Mostly Cloudy
6:50 PM 46.4 °F 41.9 °F 39.2 °F 76% 30.15 in 6.2 mi North 9.2 mph - N/A   Mostly Cloudy
7:20 PM 48.2 °F - 37.4 °F 66% 30.18 in 6.2 mi NNW 8.1 mph - N/A   Mostly Cloudy
7:50 PM 48.2 °F - 37.4 °F 66% 30.18 in 6.2 mi NW 5.8 mph - N/A   Mostly Cloudy
8:00 PM 48 °F - 38 °F 57% 30.21 in 6 mi NW 5.8 mph - -   Partly Cloudy
8:20 PM 48.2 °F - 37.4 °F 66% 30.21 in 6.2 mi NNW 6.9 mph - N/A   Mostly Cloudy
8:50 PM 48.2 °F - 37.4 °F 66% 30.21 in 6.2 mi NW 10.4 mph - N/A   Mostly Cloudy
9:20 PM 48.2 °F - 37.4 °F 66% 30.24 in 6.2 mi NW 9.2 mph - N/A   Mostly Cloudy
9:50 PM 48.2 °F - 35.6 °F 62% 30.24 in 6.2 mi NW 8.1 mph - N/A   Mostly Cloudy
10:20 PM 46.4 °F 40.7 °F 33.8 °F 62% 30.24 in 6.2 mi NW 12.7 mph - N/A   Mostly Cloudy
10:50 PM 46.4 °F 41.9 °F 33.8 °F 62% 30.24 in 6.2 mi NW 9.2 mph - N/A   Mostly Cloudy
11:00 PM 46 °F - 34 °F 51% 30.27 in 6 mi NW 9.2 mph - -   Partly Cloudy
11:20 PM 44.6 °F 39.2 °F 33.8 °F 66% 30.27 in 6.2 mi NW 10.4 mph - N/A   Mostly Cloudy
11:50 PM 44.6 °F 39.7 °F 33.8 °F 66% 30.27 in - NW 9.2 mph - N/A   Clear